Miscellaneous Local Product
Issued by NWS North Platte, NE

Home | Current Version | Previous Version | Text Only | Print | Product List | Glossary On
Versions: 1 2 3 4 5 6 7 8 9 10 11 12 13 14 15 16 17 18 19 20 21 22 23 24 25 26 27 28 29 30 31 32 33 34 35 36 37 38 39 40 41 42 43 44 45 46 47 48 49 50
000
AXUS43 KLBF 312010
MISLBF


WESTERN AND NORTH CENTRAL NEBRASKA HOURLY WEATHER ROUNDUP
NATIONAL WEATHER SERVICE NORTH PLATTE NE
200 PM CST SAT JAN 31 2015

***STATIONS NOT REPORTING VARIABLES SUCH AS SKY/WEATHER OR
PRESSURE ARE PROVIDED BY THE NEBRASKA DEPARTMENT OF
ROADS...RAWS...AND APRS NETWORKS...AND ARE NOT UNDER
NATIONAL WEATHER SERVICE QUALITY CONTROL***

...OBSERVATIONS IN AND NEAR THE EASTERN PANHANDLE OF NEBRASKA...

CITY           SKY/WX    TMP DP  RH WIND       PRES   REMARKS
PINE RIDGE     CLOUDY    29  24  82 E12       29.92F WCI  19
CHADRON        CLOUDY    33  26  75 NE10      29.91F WCI  25
ALLIANCE       SNOW      30  29  96 N8        29.86F VSB 1/4 WCI  22
SIDNEY         LGT SNOW  33  31  92 N9        29.83F FOG     WCI  25
WHITECLAY        N/A     29  24  82 NE5         N/A  WCI  23
CRESCENT LAKE    N/A     33  31  94 N6          N/A  WCI  27
LISCO            N/A     34  30  86 NW12        N/A  WCI  25
LEWELLEN         N/A     32  30  93 CALM        N/A
$$

...OBSERVATIONS IN NORTH CENTRAL NEBRASKA...

CITY           SKY/WX    TMP DP  RH WIND       PRES   REMARKS
VALENTINE      FOG       25  23  92 NE13      29.97F VSB 1   WCI  14
THEDFORD       LGT RAIN  31  31  99 NE13      29.89F WCI  22
AINSWORTH      MIX PCPN  26  25  99 NE14      29.95F VSB 1   WCI  14
O`NEILL        CLOUDY    30  30  99 N13       29.98F FOG     WCI  20
ORD            CLOUDY    35  31  85 SE8       29.92F WCI  29
BROKEN BOW     CLOUDY    35  32  88 E7        29.88F WCI  29
BROWNLEE         N/A     26  26  97 N14         N/A  WCI  15
VALENTINE NWR    N/A     26  26  99 NE10        N/A  WCI  16
SPRINGVIEW       N/A     26  24  92 NE8         N/A  WCI  18
BREWSTER         N/A     32  32  99 NE12        N/A  WCI  23
ROSE             N/A     30  30 100 N9          N/A  WCI  22
NEWPORT          N/A     30  30 100 N15         N/A  WCI  19
SARGENT          N/A     35  32  89 CALM        N/A
COMSTOCK         N/A     37  36  98 SE3         N/A
CHAMBERS         N/A     31  29  92 NW3         N/A
EWING            N/A     35  33  93 CALM        N/A
$$

...OBSERVATIONS IN SOUTHWEST NEBRASKA AND FAR NORTHEAST COLORADO...

CITY           SKY/WX    TMP DP  RH WIND       PRES   REMARKS
WRAY           CLOUDY    36  34  93 N6        29.83F FOG     WCI  31
IMPERIAL       CLOUDY    34  32  92 N7        29.84F FOG     WCI  28
OGALLALA       DRIZZLE   34  33  98 NE6       29.86F WCI  29
NORTH PLATTE   MIX PCPN  34  32  92 E5        29.87F FOG     WCI  30
MCCOOK         FOG       37  35  92 E6        29.84F VSB 1   WCI  32
LEXINGTON      LGT RAIN  34  33  96 SE6       29.89F WCI  29
BRADY            N/A     32  30  92 CALM        N/A
GOTHENBURG       N/A     33  30  90 E3          N/A
CALLAWAY         N/A     34  32  93 E5          N/A  WCI  30
$$

...NORTH PLATTE AREA...

CITY           SKY/WX    TMP DP  RH WIND       PRES   REMARKS
AIRPORT        MIX PCPN  34  32  92 E5        29.87F FOG     WCI  30
DOWNTOWN         N/A     33  30  90 CALM        N/A
$$

...SOME WEATHER OBSERVATIONS FROM AROUND THE REGION...

CITY           SKY/WX    TMP DP  RH WIND       PRES   REMARKS
DENVER         CLOUDY    37  26  64 NW7       29.82F WCI  32
LARAMIE        CLOUDY    32  26  78 W8        29.81F WCI  25
CHEYENNE       CLOUDY    36  28  73 CALM      29.80F
SCOTTSBLUFF    LGT SNOW  32  31  96 NW5       29.87F VSB 3/4 WCI  27
RAPID CITY     FOG       25  24  96 E10       29.99S VSB 1/4 WCI  15
PIERRE         CLOUDY    20  17  88 NE20      30.10F WCI   4
WINNER         FRZ RAIN  27  24  89 NE16      30.04F VSB<1/4 WCI  15
SIOUX FALLS    CLOUDY    27  24  89 E15       30.08F WCI  15
OMAHA          LGT SNOW  33  32  96 S10       30.05F VSB 3/4 WCI  25
GRAND ISLAND   LGT SNOW  32  31  96 SE8       29.95F VSB 3/4 WCI  25
KANSAS CITY    LGT RAIN  38  36  92 S9        30.11F WCI  31
WICHITA        LGT RAIN  40  38  93 S16       30.00F WCI  31
HAYS           CLOUDY    37  30  75 S12       29.89F WCI  30
LIBERAL        CLOUDY    39  36  87 S20       29.87F WCI  30
GOODLAND       CLOUDY    38  34  85 N9        29.80F WCI  31
$$



USA.gov is the U.S. government's official web portal to all federal, state and local government web resources and services.